| time (UTC) | temp C | wind direction | speed KPH | gust KPH | rain 1hr cm | rain 24hr cm | rain mn cm | humidity % | barometer mb |
| 20260506225500 | 8 | 192 | 0.0 | 4.8 | 0.00 | 1.09 | 0.00 | 93 | 1019.8 |
| 20260506225001 | 8 | 220 | 1.6 | 3.2 | 0.00 | 1.09 | 0.00 | 93 | 1019.8 |
| 20260506224502 | 8 | 221 | 1.6 | 3.2 | 0.00 | 1.09 | 0.00 | 92 | 1019.8 |
| 20260506224004 | 8 | 226 | 1.6 | 4.8 | 0.00 | 1.09 | 0.00 | 92 | 1019.7 |
| 20260506223501 | 8 | 258 | 0.0 | 9.7 | 0.00 | 1.09 | 0.00 | 92 | 1019.8 |
| 20260506223001 | 8 | 242 | 1.6 | 9.7 | 0.00 | 1.09 | 0.00 | 93 | 1019.8 |
| 20260506222501 | 8 | 235 | 3.2 | 6.4 | 0.00 | 1.09 | 0.00 | 94 | 1019.8 |
| 20260506222001 | 7 | 229 | 3.2 | 6.4 | 0.00 | 1.09 | 0.00 | 95 | 1019.8 |
| 20260506221502 | 7 | 206 | 3.2 | 3.2 | 0.00 | 1.09 | 0.00 | 95 | 1019.8 |
| 20260506221001 | 7 | 213 | 0.0 | 1.6 | 0.00 | 1.09 | 0.00 | 95 | 1019.9 |
| 20260506220500 | 7 | 213 | 0.0 | 1.6 | 0.00 | 1.09 | 0.00 | 95 | 1019.8 |
| 20260506220000 | 7 | 213 | 1.6 | 1.6 | 0.00 | 1.09 | 1.09 | 95 | 1019.8 |
| 20260506215500 | 7 | 213 | 1.6 | 4.8 | 0.00 | 1.09 | 1.09 | 95 | 1019.8 |
| 20260506214959 | 7 | 213 | 3.2 | 4.8 | 0.00 | 1.09 | 1.09 | 94 | 1019.8 |
| 20260506213959 | 7 | 208 | 0.0 | 3.2 | 0.00 | 1.09 | 1.09 | 94 | 1019.8 |
| 20260506213459 | 7 | 207 | 0.0 | 4.8 | 0.00 | 1.09 | 1.09 | 94 | 1019.8 |
| 20260506213000 | 7 | 213 | 1.6 | 4.8 | 0.00 | 1.09 | 1.09 | 94 | 1019.8 |
| 20260506212500 | 7 | 213 | 3.2 | 3.2 | 0.00 | 1.09 | 1.09 | 94 | 1019.9 |
| 20260506212000 | 7 | 211 | 1.6 | 3.2 | 0.00 | 1.09 | 1.09 | 94 | 1019.9 |
| 20260506211500 | 8 | 211 | 0.0 | 3.2 | 0.00 | 1.09 | 1.09 | 94 | 1019.9 |
| 20260506210500 | 8 | 211 | 0.0 | 3.2 | 0.00 | 1.09 | 1.09 | 94 | 1019.8 |
| 20260506205959 | 8 | 211 | 0.0 | 3.2 | 0.00 | 1.09 | 1.09 | 94 | 1019.9 |
| 20260506203959 | 8 | 214 | 1.6 | 1.6 | 0.00 | 1.09 | 1.09 | 94 | 1019.8 |
| 20260506203501 | 8 | 214 | 0.0 | 3.2 | 0.00 | 1.09 | 1.09 | 94 | 1019.7 |
| 20260506203001 | 8 | 214 | 0.0 | 3.2 | 0.00 | 1.09 | 1.09 | 94 | 1019.7 |
| 20260506202500 | 8 | 214 | 0.0 | 3.2 | 0.00 | 1.09 | 1.09 | 94 | 1019.6 |
| 20260506202002 | 8 | 214 | 0.0 | 1.6 | 0.00 | 1.09 | 1.09 | 94 | 1019.6 |
| 20260506201501 | 8 | 214 | 0.0 | 3.2 | 0.00 | 1.09 | 1.09 | 94 | 1019.6 |
| 20260506200959 | 8 | 214 | 0.0 | 3.2 | 0.03 | 1.09 | 1.09 | 94 | 1019.5 |
| 20260506200459 | 8 | 214 | 0.0 | 3.2 | 0.03 | 1.09 | 1.09 | 94 | 1019.4 |
| 20260506200001 | 8 | 214 | 0.0 | 4.8 | 0.03 | 1.09 | 1.09 | 94 | 1019.4 |
| 20260506195501 | 8 | 227 | 3.2 | 4.8 | 0.03 | 1.09 | 1.09 | 94 | 1019.3 |
| 20260506194501 | 8 | 217 | 1.6 | 3.2 | 0.03 | 1.09 | 1.09 | 93 | 1019.1 |
| 20260506193502 | 8 | 220 | 0.0 | 3.2 | 0.03 | 1.09 | 1.09 | 93 | 1018.9 |
| 20260506193000 | 8 | 220 | 0.0 | 3.2 | 0.03 | 1.09 | 1.09 | 93 | 1018.8 |
| 20260506192501 | 8 | 220 | 0.0 | 0.0 | 0.03 | 1.09 | 1.09 | 93 | 1018.8 |
| 20260506192001 | 8 | 220 | 0.0 | 0.0 | 0.03 | 1.09 | 1.09 | 93 | 1018.8 |
| 20260506191501 | 8 | 220 | 0.0 | 1.6 | 0.03 | 1.09 | 1.09 | 93 | 1018.8 |
| 20260506190503 | 8 | 220 | 1.6 | 3.2 | 0.00 | 1.09 | 1.09 | 93 | 1018.7 |
| 20260506190002 | 8 | 209 | 1.6 | 4.8 | 0.00 | 1.09 | 1.09 | 92 | 1018.7 |
| 20260506185459 | 8 | 219 | 4.8 | 6.4 | 0.00 | 1.09 | 1.09 | 92 | 1018.6 |
| 20260506184959 | 8 | 205 | 1.6 | 6.4 | 0.00 | 1.09 | 1.09 | 92 | 1018.6 |
| 20260506184459 | 8 | 195 | 4.8 | 6.4 | 0.00 | 1.09 | 1.09 | 92 | 1018.6 |
| 20260506184000 | 8 | 217 | 3.2 | 8.0 | 0.03 | 1.09 | 1.09 | 92 | 1018.6 |
| 20260506183501 | 8 | 202 | 3.2 | 11.3 | 0.03 | 1.09 | 1.09 | 92 | 1018.6 |
| 20260506182959 | 8 | 175 | 4.8 | 9.7 | 0.05 | 1.09 | 1.09 | 92 | 1018.4 |
| 20260506182459 | 8 | 203 | 3.2 | 8.0 | 0.05 | 1.09 | 1.09 | 92 | 1018.4 |
| 20260506182000 | 8 | 169 | 8.0 | 8.0 | 0.08 | 1.09 | 1.09 | 92 | 1018.4 |
| 20260506181459 | 8 | 194 | 3.2 | 8.0 | 0.13 | 1.09 | 1.09 | 92 | 1018.3 |
| 20260506180959 | 8 | 192 | 3.2 | 8.0 | 0.15 | 1.09 | 1.09 | 91 | 1018.2 |
| 20260506180500 | 9 | 211 | 3.2 | 4.8 | 0.18 | 1.09 | 1.09 | 92 | 1018.1 |
| 20260506175959 | 9 | 192 | 3.2 | 6.4 | 0.23 | 1.09 | 1.09 | 91 | 1018.1 |
| 20260506175459 | 9 | 207 | 1.6 | 6.4 | 0.23 | 1.09 | 1.09 | 91 | 1018.0 |
| 20260506174959 | 9 | 182 | 1.6 | 4.8 | 0.28 | 1.09 | 1.09 | 92 | 1018.0 |
| 20260506174000 | 9 | 244 | 1.6 | 8.0 | 0.36 | 1.07 | 1.07 | 91 | 1018.0 |
| 20260506173459 | 9 | 169 | 1.6 | 8.0 | 0.43 | 1.07 | 1.07 | 91 | 1017.9 |
| 20260506171959 | 9 | 229 | 1.6 | 6.4 | 0.51 | 0.99 | 0.99 | 91 | 1017.8 |
| 20260506171500 | 9 | 186 | 4.8 | 6.4 | 0.51 | 0.97 | 0.97 | 91 | 1017.8 |
| 20260506170959 | 9 | 175 | 1.6 | 4.8 | 0.48 | 0.91 | 0.91 | 90 | 1017.7 |
| 20260506165959 | 9 | 194 | 1.6 | 8.0 | 0.46 | 0.86 | 0.86 | 90 | 1017.8 |
| 20260506165458 | 9 | 184 | 1.6 | 8.0 | 0.46 | 0.84 | 0.84 | 90 | 1017.7 |
| 20260506165001 | 9 | 195 | 4.8 | 8.0 | 0.43 | 0.79 | 0.79 | 90 | 1017.7 |
| 20260506164002 | 9 | 136 | 6.4 | 11.3 | 0.43 | 0.71 | 0.71 | 90 | 1017.7 |
| 20260506163500 | 9 | 176 | 3.2 | 11.3 | 0.43 | 0.61 | 0.61 | 89 | 1017.7 |
| 20260506163006 | 10 | 242 | 1.6 | 3.2 | 0.38 | 0.56 | 0.56 | 89 | 1017.6 |
| 20260506162500 | 10 | 190 | 1.6 | 4.8 | 0.36 | 0.51 | 0.51 | 89 | 1017.5 |
| 20260506161500 | 10 | 202 | 1.6 | 8.0 | 0.33 | 0.46 | 0.46 | 88 | 1017.5 |
| 20260506160959 | 10 | 213 | 1.6 | 8.0 | 0.33 | 0.43 | 0.43 | 89 | 1017.4 |
| 20260506155500 | 10 | 250 | 1.6 | 3.2 | 0.28 | 0.43 | 0.38 | 86 | 1017.4 |
| 20260506155000 | 10 | 169 | 0.0 | 8.0 | 0.30 | 0.43 | 0.38 | 88 | 1017.3 |
| 20260506154001 | 10 | 202 | 3.2 | 8.0 | 0.18 | 0.33 | 0.25 | 86 | 1017.2 |
| 20260506153459 | 10 | 231 | 4.8 | 4.8 | 0.15 | 0.25 | 0.20 | 88 | 1017.1 |
| 20260506152959 | 10 | 261 | 3.2 | 4.8 | 0.13 | 0.23 | 0.18 | 88 | 1017.1 |
| 20260506152500 | 10 | 271 | 1.6 | 6.4 | 0.10 | 0.20 | 0.15 | 88 | 1017.2 |
| 20260506152001 | 10 | 163 | 3.2 | 6.4 | 0.13 | 0.20 | 0.15 | 87 | 1017.0 |
| 20260506150959 | 10 | 167 | 1.6 | 3.2 | 0.10 | 0.15 | 0.10 | 86 | 1017.0 |
| 20260506150500 | 10 | 183 | 1.6 | 3.2 | 0.10 | 0.15 | 0.10 | 86 | 1016.9 |
| 20260506144501 | 11 | 234 | 1.6 | 4.8 | 0.08 | 0.33 | 0.08 | 84 | 1017.0 |
| 20260506144000 | 11 | 217 | 1.6 | 11.3 | 0.08 | 0.33 | 0.08 | 80 | 1016.9 |
| 20260506143000 | 11 | 250 | 12.9 | 14.5 | 0.05 | 0.33 | 0.05 | 81 | 1016.8 |
| 20260506142500 | 11 | 260 | 4.8 | 12.9 | 0.05 | 0.30 | 0.05 | 79 | 1016.7 |
| 20260506142000 | 11 | 263 | 1.6 | 12.9 | 0.03 | 0.28 | 0.03 | 78 | 1016.8 |
| 20260506141000 | 12 | 238 | 1.6 | 12.9 | 0.00 | 0.25 | 0.00 | 70 | 1016.7 |
| 20260506140500 | 12 | 343 | 3.2 | 14.5 | 0.00 | 0.25 | 0.00 | 70 | 1016.7 |
| 20260506140001 | 12 | 348 | 3.2 | 17.7 | 0.00 | 0.25 | 0.00 | 69 | 1016.6 |
| 20260506135500 | 12 | 9 | 6.4 | 19.3 | 0.00 | 0.25 | 0.00 | 67 | 1016.6 |
| 20260506134501 | 13 | 24 | 16.1 | 20.9 | 0.00 | 0.25 | 0.00 | 64 | 1016.4 |
| 20260506134000 | 13 | 321 | 4.8 | 16.1 | 0.00 | 0.25 | 0.00 | 64 | 1016.4 |
| 20260506133500 | 14 | 33 | 6.4 | 16.1 | 0.00 | 0.25 | 0.00 | 63 | 1016.4 |
| 20260506133001 | 13 | 44 | 9.7 | 16.1 | 0.00 | 0.25 | 0.00 | 63 | 1016.4 |
| 20260506131959 | 13 | 41 | 16.1 | 19.3 | 0.00 | 0.25 | 0.00 | 63 | 1016.5 |
| 20260506131459 | 13 | 46 | 9.7 | 17.7 | 0.00 | 0.25 | 0.00 | 63 | 1016.4 |
| 20260506130959 | 13 | 27 | 0.0 | 17.7 | 0.00 | 0.25 | 0.00 | 63 | 1016.4 |
| 20260506130500 | 13 | 51 | 0.0 | 19.3 | 0.00 | 0.25 | 0.00 | 62 | 1016.4 |
| 20260506130002 | 14 | 42 | 8.0 | 19.3 | 0.00 | 0.25 | 0.00 | 63 | 1016.5 |
| 20260506125500 | 14 | 13 | 11.3 | 19.3 | 0.00 | 0.25 | 0.00 | 65 | 1016.5 |
| 20260506125000 | 14 | 23 | 4.8 | 17.7 | 0.00 | 0.25 | 0.00 | 62 | 1016.4 |
| 20260506124500 | 13 | 31 | 9.7 | 17.7 | 0.00 | 0.25 | 0.00 | 63 | 1016.5 |
| 20260506124003 | 14 | 45 | 16.1 | 19.3 | 0.00 | 0.25 | 0.00 | 60 | 1016.4 |
| 20260506123501 | 15 | 37 | 9.7 | 22.5 | 0.00 | 0.25 | 0.00 | 63 | 1016.4 |
| 20260506123001 | 15 | 69 | 14.5 | 22.5 | 0.00 | 0.25 | 0.00 | 68 | 1016.5 |
| 20260506122000 | 14 | 232 | 3.2 | 11.3 | 0.00 | 0.25 | 0.00 | 61 | 1016.4 |
| 20260506121502 | 15 | 205 | 4.8 | 17.7 | 0.00 | 0.25 | 0.00 | 62 | 1016.4 |
| 20260506120959 | 15 | 219 | 3.2 | 16.1 | 0.00 | 0.25 | 0.00 | 62 | 1016.3 |
| 20260506120500 | 15 | 256 | 4.8 | 11.3 | 0.00 | 0.25 | 0.00 | 61 | 1016.4 |
| 20260506120000 | 15 | 59 | 3.2 | 22.5 | 0.00 | 0.25 | 0.00 | 62 | 1016.3 |
| 20260506115000 | 15 | 312 | 8.0 | 16.1 | 0.00 | 0.25 | 0.00 | 60 | 1016.5 |
| 20260506114501 | 14 | 218 | 6.4 | 16.1 | 0.00 | 0.25 | 0.00 | 60 | 1016.4 |
| 20260506114000 | 14 | 274 | 9.7 | 16.1 | 0.00 | 0.25 | 0.00 | 65 | 1016.5 |
| 20260506113502 | 13 | 297 | 4.8 | 11.3 | 0.00 | 0.25 | 0.00 | 68 | 1016.7 |
| 20260506112501 | 13 | 217 | 9.7 | 14.5 | 0.00 | 0.25 | 0.00 | 65 | 1016.8 |
| 20260506111959 | 13 | 219 | 11.3 | 14.5 | 0.00 | 0.25 | 0.00 | 63 | 1016.8 |
| 20260506111500 | 13 | 189 | 3.2 | 17.7 | 0.00 | 0.25 | 0.00 | 65 | 1016.7 |
| 20260506111003 | 13 | 204 | 4.8 | 17.7 | 0.00 | 0.25 | 0.00 | 65 | 1016.9 |
| 20260506105959 | 13 | 84 | 3.2 | 14.5 | 0.00 | 0.25 | 0.00 | 64 | 1016.9 |
| 20260506104959 | 13 | 228 | 9.7 | 14.5 | 0.00 | 0.25 | 0.00 | 61 | 1016.9 |
| 20260506104459 | 13 | 92 | 1.6 | 14.5 | 0.00 | 0.25 | 0.00 | 62 | 1017.1 |
| 20260506103959 | 13 | 239 | 9.7 | 14.5 | 0.00 | 0.25 | 0.00 | 63 | 1017.0 |
| 20260506102959 | 13 | 329 | 4.8 | 17.7 | 0.00 | 0.25 | 0.00 | 64 | 1017.2 |
| 20260506102459 | 12 | 303 | 1.6 | 17.7 | 0.00 | 0.25 | 0.00 | 64 | 1017.2 |
| 20260506102000 | 12 | 53 | 16.1 | 17.7 | 0.00 | 0.25 | 0.00 | 68 | 1017.1 |
| 20260506101459 | 12 | 40 | 11.3 | 17.7 | 0.00 | 0.25 | 0.00 | 70 | 1017.3 |
| 20260506100958 | 12 | 28 | 4.8 | 17.7 | 0.00 | 0.25 | 0.00 | 64 | 1017.2 |
| 20260506100459 | 12 | 333 | 3.2 | 17.7 | 0.00 | 0.25 | 0.00 | 63 | 1017.3 |
| 20260506100001 | 12 | 338 | 9.7 | 14.5 | 0.00 | 0.25 | 0.00 | 64 | 1017.3 |
| 20260506095458 | 12 | 63 | 6.4 | 12.9 | 0.00 | 0.25 | 0.00 | 72 | 1017.2 |
| 20260506095000 | 12 | 68 | 3.2 | 11.3 | 0.00 | 0.25 | 0.00 | 65 | 1017.2 |
| 20260506094501 | 12 | 242 | 4.8 | 9.7 | 0.00 | 0.25 | 0.00 | 62 | 1017.2 |
| 20260506093959 | 12 | 242 | 6.4 | 11.3 | 0.00 | 0.25 | 0.00 | 62 | 1017.1 |
| 20260506093500 | 12 | 263 | 4.8 | 12.9 | 0.00 | 0.25 | 0.00 | 60 | 1017.1 |
| 20260506092501 | 13 | 56 | 6.4 | 6.4 | 0.00 | 0.25 | 0.00 | 63 | 1017.1 |
| 20260506092002 | 12 | 127 | 3.2 | 12.9 | 0.00 | 0.25 | 0.00 | 70 | 1017.1 |
| 20260506091500 | 12 | 313 | 3.2 | 12.9 | 0.00 | 0.25 | 0.00 | 66 | 1017.1 |
| 20260506090000 | 12 | 65 | 3.2 | 9.7 | 0.00 | 0.25 | 0.00 | 67 | 1016.9 |
| 20260506085500 | 12 | 61 | 3.2 | 8.0 | 0.00 | 0.25 | 0.00 | 72 | 1016.9 |
| 20260506085001 | 11 | 57 | 6.4 | 8.0 | 0.00 | 0.25 | 0.00 | 68 | 1016.9 |
| 20260506083459 | 11 | 55 | 1.6 | 4.8 | 0.00 | 0.25 | 0.00 | 75 | 1016.9 |
| 20260506083001 | 11 | 40 | 1.6 | 4.8 | 0.00 | 0.25 | 0.00 | 73 | 1017.0 |
| 20260506082501 | 11 | 71 | 3.2 | 3.2 | 0.00 | 0.25 | 0.00 | 77 | 1017.1 |
| 20260506081958 | 10 | 55 | 0.0 | 3.2 | 0.00 | 0.25 | 0.00 | 74 | 1017.1 |
| 20260506081501 | 10 | 91 | 1.6 | 4.8 | 0.00 | 0.25 | 0.00 | 76 | 1017.1 |
| 20260506081002 | 10 | 120 | 3.2 | 6.4 | 0.00 | 0.25 | 0.00 | 73 | 1017.1 |
| 20260506080459 | 10 | 68 | 3.2 | 6.4 | 0.00 | 0.25 | 0.00 | 76 | 1017.2 |
| 20260506073500 | 7 | 177 | 1.6 | 3.2 | 0.00 | 0.25 | 0.00 | 90 | 1017.3 |
| 20260506071959 | 7 | 44 | 1.6 | 3.2 | 0.00 | 0.25 | 0.00 | 90 | 1017.3 |
| 20260506070459 | 8 | 44 | 0.0 | 3.2 | 0.00 | 0.25 | 0.00 | 89 | 1017.2 |
| 20260506062458 | 7 | 45 | 1.6 | 4.8 | 0.00 | 0.25 | 0.00 | 94 | 1017.2 |
| 20260506062004 | 7 | 45 | 3.2 | 3.2 | 0.00 | 0.25 | 0.00 | 94 | 1017.2 |
| 20260506061001 | 7 | 232 | 0.0 | 3.2 | 0.00 | 0.25 | 0.00 | 95 | 1017.1 |
| 20260506060502 | 7 | 232 | 0.0 | 3.2 | 0.00 | 0.25 | 0.00 | 95 | 1017.1 |
| 20260506050958 | -17 | 0.0 | 0.0 | 0.00 | 0.25 | 0.00 | 1016.8 | ||
| 20260506050458 | -17 | 0.0 | 0.0 | 0.00 | 0.25 | 0.00 | 1016.7 | ||
| 20260506044958 | -17 | 0.0 | 0.0 | 0.00 | 0.25 | 0.00 | 1016.7 | ||
| 20260506044459 | -17 | 0.0 | 0.0 | 0.00 | 0.25 | 0.00 | 1016.6 | ||
| 20260506043958 | -17 | 0.0 | 0.0 | 0.00 | 0.25 | 0.00 | 1016.6 | ||
| 20260506043458 | -17 | 0.0 | 0.0 | 0.00 | 0.25 | 0.00 | 1016.6 | ||
| 20260506042958 | -17 | 0.0 | 0.0 | 0.00 | 0.25 | 0.00 | 1016.5 | ||
| 20260506042458 | -17 | 0.0 | 0.0 | 0.00 | 0.25 | 0.00 | 1016.5 | ||
| 20260506041958 | -17 | 0.0 | 0.0 | 0.00 | 0.25 | 0.00 | 1016.5 | ||
| 20260506041458 | -17 | 0.0 | 0.0 | 0.00 | 0.25 | 0.00 | 1016.5 | ||
| 20260506040958 | -17 | 0.0 | 0.0 | 0.00 | 0.25 | 0.00 | 1016.4 | ||
| 20260506040458 | -17 | 0.0 | 0.0 | 0.00 | 0.25 | 0.00 | 1016.4 | ||
| 20260506035959 | -17 | 0.0 | 0.0 | 0.00 | 0.25 | 0.00 | 1016.5 | ||
| 20260506035458 | -17 | 0.0 | 0.0 | 0.00 | 0.25 | 0.00 | 1016.4 | ||
| 20260506033957 | -17 | 0.0 | 0.0 | 0.00 | 0.25 | 0.00 | 1016.4 | ||
| 20260506032958 | -17 | 0.0 | 0.0 | 0.00 | 0.25 | 0.00 | 1016.6 | ||
| 20260506031958 | -17 | 0.0 | 0.0 | 0.00 | 0.25 | 0.00 | 1016.6 | ||
| 20260506031458 | -17 | 0.0 | 0.0 | 0.00 | 0.25 | 0.00 | 1016.6 | ||
| 20260506030958 | -17 | 0.0 | 0.0 | 0.00 | 0.25 | 0.00 | 1016.5 | ||
| 20260506030459 | -17 | 0.0 | 0.0 | 0.00 | 0.25 | 0.00 | 1016.6 | ||
| 20260506025959 | -17 | 0.0 | 0.0 | 0.00 | 0.25 | 0.00 | 1016.6 | ||
| 20260506025458 | -17 | 0.0 | 0.0 | 0.00 | 0.25 | 0.00 | 1016.4 | ||
| 20260506024958 | -17 | 0.0 | 0.0 | 0.00 | 0.25 | 0.00 | 1016.5 | ||
| 20260506024458 | -17 | 0.0 | 0.0 | 0.00 | 0.25 | 0.00 | 1016.5 | ||
| 20260506023958 | -17 | 0.0 | 0.0 | 0.00 | 0.25 | 0.00 | 1016.6 | ||
| 20260506023458 | -17 | 0.0 | 0.0 | 0.00 | 0.25 | 0.00 | 1016.6 | ||
| 20260506022958 | -17 | 0.0 | 0.0 | 0.00 | 0.25 | 0.00 | 1016.6 | ||
| 20260506022458 | -17 | 0.0 | 0.0 | 0.00 | 0.25 | 0.00 | 1016.6 | ||
| 20260506021958 | -17 | 0.0 | 0.0 | 0.00 | 0.25 | 0.00 | 1016.5 | ||
| 20260506021457 | -17 | 0.0 | 0.0 | 0.00 | 0.25 | 0.00 | 1016.4 | ||
| 20260506020958 | -17 | 0.0 | 0.0 | 0.00 | 0.25 | 0.00 | 1016.5 | ||
| 20260506020457 | -17 | 0.0 | 0.0 | 0.00 | 0.25 | 0.00 | 1016.4 | ||
| 20260506015958 | -17 | 0.0 | 0.0 | 0.00 | 0.25 | 0.00 | 1016.4 | ||
| 20260506014456 | -17 | 0.0 | 0.0 | 0.00 | 0.25 | 0.00 | 1016.6 | ||
| 20260506013957 | -17 | 0.0 | 0.0 | 0.00 | 0.25 | 0.00 | 1016.6 | ||
| 20260506013457 | -17 | 0.0 | 0.0 | 0.00 | 0.25 | 0.00 | 1016.6 | ||
| 20260506012958 | -17 | 0.0 | 0.0 | 0.00 | 0.25 | 0.00 | 1016.6 | ||
| 20260506012458 | -17 | 0.0 | 0.0 | 0.00 | 0.25 | 0.00 | 1016.6 | ||
| 20260506011459 | -17 | 0.0 | 0.0 | 0.00 | 0.25 | 0.00 | 1016.7 | ||
| 20260506010457 | -17 | 0.0 | 0.0 | 0.00 | 0.25 | 0.00 | 1016.9 | ||
| 20260506010000 | -17 | 0.0 | 0.0 | 0.00 | 0.25 | 0.00 | 1016.9 | ||
| 20260506005459 | -17 | 0.0 | 0.0 | 0.00 | 0.25 | 0.00 | 1016.9 | ||
| 20260506004958 | -17 | 0.0 | 0.0 | 0.00 | 0.25 | 0.00 | 1016.9 | ||
| 20260506004458 | -17 | 0.0 | 0.0 | 0.00 | 0.25 | 0.00 | 1016.9 | ||
| 20260506004000 | -17 | 0.0 | 0.0 | 0.00 | 0.25 | 0.00 | 1016.9 | ||
| 20260506003457 | -17 | 0.0 | 0.0 | 0.00 | 0.25 | 0.00 | 1016.8 | ||
| 20260506002959 | -17 | 0.0 | 0.0 | 0.00 | 0.25 | 0.00 | 1016.9 | ||
| 20260506002459 | -17 | 0.0 | 0.0 | 0.00 | 0.25 | 0.00 | 1016.9 | ||
| 20260506001958 | -17 | 0.0 | 0.0 | 0.00 | 0.25 | 0.00 | 1017.0 | ||
| 20260506001459 | -17 | 0.0 | 0.0 | 0.00 | 0.25 | 0.00 | 1017.0 | ||
| 20260506000958 | -17 | 0.0 | 0.0 | 0.00 | 0.25 | 0.00 | 1017.1 | ||
| 20260506000458 | -17 | 0.0 | 0.0 | 0.00 | 0.25 | 0.00 | 1017.3 | ||
| 20260505235458 | -17 | 0.0 | 0.0 | 0.00 | 0.25 | 0.00 | 1017.3 | ||
| 20260505234957 | -17 | 0.0 | 0.0 | 0.00 | 0.25 | 0.00 | 1017.4 | ||
| 20260505234458 | -17 | 0.0 | 0.0 | 0.00 | 0.25 | 0.00 | 1017.4 | ||
| 20260505233958 | -17 | 0.0 | 0.0 | 0.00 | 0.25 | 0.00 | 1017.5 | ||
| 20260505233457 | -17 | 0.0 | 0.0 | 0.00 | 0.25 | 0.00 | 1017.6 | ||
| 20260505232957 | -17 | 0.0 | 0.0 | 0.00 | 0.25 | 0.00 | 1017.6 | ||
| 20260505232458 | -17 | 0.0 | 0.0 | 0.00 | 0.25 | 0.00 | 1017.7 | ||
| 20260505231957 | -17 | 0.0 | 0.0 | 0.00 | 0.25 | 0.00 | 1017.6 | ||
| 20260505231457 | -17 | 0.0 | 0.0 | 0.00 | 0.25 | 0.00 | 1017.6 | ||
| 20260505230957 | -17 | 0.0 | 0.0 | 0.00 | 0.25 | 0.00 | 1017.5 | ||
| 20260505230457 | -17 | 0.0 | 0.0 | 0.00 | 0.25 | 0.00 | 1017.7 | ||
| 20260505230000 | -17 | 0.0 | 0.0 | 0.00 | 0.25 | 0.00 | 1017.7 |